Port Hope, MI

11:22 PM EDT on July 26, 2017 (GMT -0400)
Port Hope

Weather History for KP58 - March, 2014

Change the Weather History Date:

Monday, March 24, 2014

  Actual Average Record
Temperature  
Mean Temperature 16 °F -  
Max Temperature 26 °F 40 °F 63 °F (2003)
Min Temperature 6 °F 29 °F 6 °F (2014)
Degree Days  
Heating Degree Days 49    
Moisture  
Dew Point 7 °F    
Average Humidity 64    
Maximum Humidity 88    
Minimum Humidity 48    
Precipitation  
Precipitation 0.00 in - - ()
Sea Level Pressure  
Sea Level Pressure 30.24 in    
Wind  
Wind Speed 4 mph (WSW)    
Max Wind Speed 12 mph    
Max Gust Speed 17 mph    
Averages and records for this station are not official NWS values.
T = Trace of Precipitation, MM = Missing Value Source: NWS Daily Summary

Daily Weather History Graph

Daily Weather History Graph

Search for Another Location

Airport or City:

Trip Planner

Search our weather history database for the weather conditions in past years. The results will help you decide how hot, cold, wet, or windy it might be!

Date:

Astronomy

Mar. 24, 2014 Rise Set
Actual Time 7:27 AM EDT 7:48 PM EDT
Civil Twilight 6:58 AM EDT 8:17 PM EDT
Nautical Twilight 6:24 AM EDT 8:51 PM EDT
Astronomical Twilight 5:49 AM EDT 9:26 PM EDT
Moon 3:07 AM EDT (3/24) 1:01 PM EDT (3/24)
Length of Visible Light 13h 19m
Length of Day
12h 21m
Last Quarter, 43% of the Moon is Illuminated
Mar 24
Last Quarter
Mar 30
New
Apr 7
First Quarter
Apr 15
Full
Apr 22
Last Quarter

Hourly Weather History & Observations

Time (EDT) Temp. Windchill Dew Point Humidity Pressure Visibility Wind Dir Wind Speed Gust Speed Precip Events Conditions
12:51 AM 15.1 °F - 10.9 °F 84% 30.38 in - Calm Calm - N/A   Unknown
1:51 AM 12.9 °F - 10.0 °F 88% 30.37 in - Calm Calm - N/A   Unknown
2:51 AM 12.9 °F 5.2 °F 9.0 °F 84% 30.36 in - SW 4.6 mph - N/A   Unknown
3:51 AM 10.9 °F 2.9 °F 7.0 °F 84% 30.36 in - SW 4.6 mph - N/A   Unknown
4:51 AM 6.1 °F - 3.0 °F 87% 30.36 in - Calm Calm - N/A   Unknown
5:51 AM 6.1 °F -2.8 °F 1.9 °F 83% 30.35 in - SW 4.6 mph - N/A   Unknown
6:51 AM 8.1 °F -2.0 °F 3.0 °F 80% 30.35 in - SW 5.8 mph - N/A   Unknown
7:51 AM 9.0 °F -0.9 °F 3.9 °F 80% 30.35 in - SW 5.8 mph - N/A   Unknown
8:51 AM 14.0 °F 3.9 °F 3.9 °F 64% 30.33 in - SW 6.9 mph - N/A   Unknown
9:51 AM 18.0 °F 11.1 °F 3.9 °F 54% 30.33 in - WSW 4.6 mph - N/A   Unknown
10:51 AM 19.0 °F 10.0 °F 3.9 °F 52% 30.31 in - SW 6.9 mph - N/A   Unknown
11:51 AM 21.0 °F 12.4 °F 7.0 °F 55% 30.28 in - SSW 6.9 mph - N/A   Unknown
12:51 PM 23.0 °F 13.9 °F 8.1 °F 53% 30.26 in - SW 8.1 mph - N/A   Unknown
1:51 PM 23.0 °F 13.1 °F 10.9 °F 60% 30.24 in - WSW 9.2 mph - N/A   Unknown
2:51 PM 25.0 °F 17.1 °F 10.9 °F 55% 30.20 in - West 6.9 mph - N/A   Unknown
3:51 PM 25.0 °F 14.2 °F 10.9 °F 55% 30.17 in - WSW 11.5 mph 17.3 mph N/A   Unknown
4:51 PM 26.1 °F 16.2 °F 12.0 °F 55% 30.14 in - WSW 10.4 mph - N/A   Unknown
5:51 PM 26.1 °F 16.2 °F 9.0 °F 49% 30.12 in - West 10.4 mph 17.3 mph N/A   Unknown
6:51 PM 26.1 °F 20.5 °F 10.0 °F 51% 30.12 in - WSW 4.6 mph - N/A   Unknown
7:51 PM 24.1 °F 18.2 °F 10.9 °F 57% 30.11 in - SW 4.6 mph - N/A   Unknown
8:51 PM 24.1 °F 17.0 °F 9.0 °F 53% 30.10 in - WSW 5.8 mph - N/A   Unknown
9:51 PM 24.1 °F 17.0 °F 7.0 °F 48% 30.09 in - Variable 5.8 mph - N/A   Unknown
10:51 PM 23.0 °F 15.8 °F 6.1 °F 48% 30.09 in - West 5.8 mph - N/A   Unknown
11:51 PM 19.0 °F 12.3 °F 7.0 °F 59% 30.08 in - SW 4.6 mph - N/A   Unknown